Terminal Aerodrome Forecast
Issued by NWS

Home | Current Version | Previous Version | Text Only | Print | Product List | Glossary On
Versions: 1 2 3 4 5 6 7 8 9 10 11 12 13 14 15 16 17 18 19 20 21 22 23 24 25 26 27 28 29 30 31 32 33 34 35 36 37 38 39 40 41 42 43 44 45 46 47 48 49 50
000
FTUS41 KCTP 230537
TAFJST
TAF
KJST 230537Z 2306/2406 33013KT P6SM OVC006
     FM231400 32015G25KT P6SM OVC015
     FM231800 31014G21KT P6SM SCT035
     FM232300 31010KT P6SM FEW025=

USA.gov is the U.S. government's official web portal to all federal, state and local government web resources and services.